P/2005 L4 ( Christensen )

Japanese version
Home page
Updated on May 8, 2006

---------------------------------------------------------------------

* Profile

Discovery Date June 13, 2005
Magnitude 19.1 mag
Discoverer Eric Christensen (Mt. Lemmon Survey)

* Orbital Elements

Epoch 2005 Aug. 18.0 TT = JDT 2453600.5
T 2005 Aug. 24.62919 TT                                 MPC
q   2.3667700            (2000.0)            P               Q
n   0.11808585     Peri.   24.72079     +0.60875767     +0.74067165
a   4.1146933      Node   284.07682     -0.76790595     +0.46006623
e   0.4248004      Incl.   17.04299     -0.19933525     +0.48963719
P   8.35

* Finding Charts

* Magnitudes Graph

        m1 = 14.7 + 5 log d + 10.0 log r

---------------------------------------------------------------------

The orbital elements are published on M.P.E.C. 2005-S05.
The charts are made with StellaNavigator Ver.2.0 for Windows (AstroArts / ASCII).
The magnitudes graphs are made with Comet for Windows.

---------------------------------------------------------------------

Copyright(C) Seiichi Yoshida (comet@aerith.net). All rights reserved.